Location: Eenumerhoogte
(53.3420°N, 6.7843°E)
Time: 05:11:44
(UTC+00:00)

Cosmos 1655 Rocket - Pass Details

Date: 15 May 2026
Orbit: 969 x 1006 km, 83.0° (Epoch: 6 June)

Event Time Altitude Azimuth Distance (km) Brightness Sun altitude
Rises 23:11:39 0° 350° (N) 3,678 8.7 -17.5°
Reaches altitude 10° 23:14:11 10° 353° (N) 2,729 7.7 -17.5°
Maximum altitude 23:20:25 68° 76° (ENE) 1,050 4.2 -17.6°
Enters shadow 23:24:15 25° 154° (SSE) 1,878 5.0 -17.6°
